Home > Time Zones > World Clock > Weather > U.S.A. > Napa > Past weeks

Flag for U.S.A. Weather past 2 weeks in Napa, California, U.S.A.

Now
59 °F

Clear.


Feels Like: 57 °F
Forecast: 56 / 75 °F
Wind: 13 mph from West

Location: Napa County Airport

Current Time: Jul 8, 2015 at 12:31:24 AM

Latest Report: Jul 7, 2015 at 11:54 PM


Visibility: 10 mi

Pressure: 29.87 "Hg

Humidity: 87%

Dew point: 55 °F

Location of NapaLocation

Historic Weather in Napa — Graph

°F

Napa temperature yesterday

Maximum temperature yesterday: 80 °F (at 2:54 PM)
Minimum temperature yesterday: 58 °F (at 4:54 AM)
Average temperature yesterday: 67 °F

Past Weeks' High & Low Weather Summary

 TemperatureHumidityPressure
High87 °F (Jun 30, 1:54 PM)97% (Jun 26, 5:54 AM)30.05 "Hg (Jun 26, 5:54 AM)
Low50 °F (Jun 23, 5:54 AM)33% (Jun 30, 1:54 PM)29.75 "Hg (Jun 30, 4:54 PM)
Average66 °F72%29.90 "Hg
* Reported Jun 22 10:54 PM — Jul 7 10:54 PM, Napa, Weather by CustomWeather, © 2015

Note: Actual official high and low records may vary slightly from our data, if they occured in-between our weather recording intervals... More about our weather records

Advertising

Napa weather history for previous 24 hours

 ConditionsComfort  
Time TempWeatherWind HumidityBarometerVisibility
10:54 PM
Tue, Jul 7
59 °FClear.13 mph87%29.88 "Hg10 mi
9:54 PM60 °FClear.18 mph83%29.88 "Hg10 mi
8:54 PM63 °FSunny.17 mph75%29.87 "Hg10 mi
7:54 PM66 °FSunny.20 mph65%29.86 "Hg10 mi
6:54 PM70 °FSunny.21 mph57%29.85 "Hg10 mi
5:54 PM75 °FSunny.18 mph47%29.86 "Hg10 mi
4:54 PM77 °FSunny.17 mph42%29.86 "Hg10 mi
3:54 PM77 °FSunny.20 mph45%29.88 "Hg10 mi
2:54 PM80 °FSunny.16 mph39%29.90 "Hg10 mi
1:54 PM76 °FSunny.18 mph56%29.92 "Hg10 mi
12:54 PM77 °FSunny.16 mph54%29.94 "Hg10 mi
11:54 AM75 °FSunny.15 mph58%29.96 "Hg10 mi
10:54 AM74 °FSunny.12 mph53%29.96 "Hg10 mi
9:54 AM68 °FSunny.13 mph68%29.98 "Hg10 mi
8:54 AM65 °FScattered clouds.12 mph76%29.99 "Hg10 mi
7:54 AM65 °FScattered clouds.14 mph76%29.99 "Hg10 mi
6:54 AM61 °FScattered clouds.10 mph87%29.99 "Hg10 mi
5:54 AM58 °FClear.10 mph93%29.97 "Hg10 mi
4:54 AM58 °FClear.7 mph93%29.96 "Hg10 mi
3:54 AM59 °FClear.10 mph90%29.96 "Hg10 mi
2:54 AM59 °FClear.10 mph90%29.96 "Hg10 mi
1:54 AM60 °FClear.15 mph86%29.97 "Hg10 mi
12:54 AM60 °FClear.15 mph83%29.97 "Hg10 mi
Weather by CustomWeather, © 2015

See weather overviewHow to use our weather pages